[[{"header":{"parameterUnit":"m.s-1","parameterCategory":1,"la1":30.2991,"la2":30.254,"lo1":-89.0895,"lo2":-89.0444,"dy":0.0017,"dx":0.0017,"nx":28,"ny":28,"refTime":"2024-07-16T03:00:00:Z","depth":0,"parameterNumber":2,"parameterNumberName":"U-component_of_WINDS"},"data":[0,0,0,0,0,0,0,0,0,0,0,0,0,0,0,0,0,0,0,0,0,0,0,0,0,0,0,0,0,0,0,0,0,0,0,0,0,0,0,0,0,0,0,0,0,0,0,0,0,0,0,0,0,0,0,0,0,0,1.1038,1.104,0,1.1205,1.1207,1.1209,1.13,1.13,1.13,1.13,1.1474,1.1479,1.1483,0,0,0,0,0,0,0,0,0,0,0,0,0,1.0803,1.0807,1.1038,1.104,1.1042,1.1204,1.1207,1.1209,1.13,1.13,1.13,1.1301,1.1473,1.1478,1.1483,0,0,0,0,0,0,0,0,0,0,0,0,0,1.0931,1.0808,1.1038,1.1107,1.1115,1.1204,1.1207,1.121,1.13,1.13,1.13,1.1301,1.1471,1.1478,1.1484,1.1518,0,0,1.1504,1.1507,0,0,0,0,0,0,0,0,1.0923,1.0939,1.1095,1.1103,1.1111,1.1232,1.1188,1.1313,1.13,1.123,1.13,1.1301,1.1394,1.1407,1.1437,1.1526,1.1534,1.1505,1.1509,1.1512,1.1514,0,0,0,0,0,0,0,1.0914,1.0933,1.1104,1.1097,1.1107,1.1131,1.115,1.1212,1.1308,1.1236,1.1243,1.1261,1.1398,1.1431,1.1442,1.1536,1.1505,1.1511,1.1515,1.1517,1.1663,1.1663,0,0,0,0,0,0,1.0894,1.0925,1.1099,1.1109,1.1016,1.1135,1.1156,1.1193,1.1307,1.1325,1.1261,1.1265,1.1419,1.1434,1.1448,1.1496,1.1512,1.1518,1.1522,1.1663,1.1663,1.1663,0,0,0,0,0,0,1.0888,1.0909,1.1092,1.1019,1.1044,1.1139,1.118,1.1196,1.1228,1.1326,1.1344,1.1276,1.142,1.1439,1.15,1.1504,1.1521,1.1527,1.1663,1.1663,1.1663,1.1592,0,0,0,0,0,0,1.0881,1.0906,1.0919,1.1018,1.1048,1.114,1.118,1.1199,1.1239,1.1246,1.1345,1.1362,1.1422,1.149,1.1507,1.1513,1.1532,1.1663,1.1663,1.1663,1.1594,1.1589,1.1585,0,0,0,0,0,1.0873,1.0893,1.0919,1.094,1.1066,1.114,1.1157,1.1224,1.1239,1.1254,1.1316,1.1359,1.15,1.1495,1.1515,1.1523,1.1663,1.1663,1.1663,1.1596,1.159,1.1585,0,0,0,0,0,0,1.0793,1.0907,1.0938,1.0991,1.1055,1.1155,1.1175,1.1215,1.1277,1.1281,1.1364,1.1385,1.1439,1.1488,1.148,1.1563,1.1586,1.159,1.1529,1.1524,1.1519,1.1506,1.1538,0,0,0,0,0,1.0781,1.083,1.0928,1.0966,1.0996,1.108,1.1115,1.1161,1.1231,1.1259,1.1327,1.1394,1.1454,1.1492,1.1552,1.1602,1.1625,1.1617,1.1612,1.1608,1.161,1.1641,1.1639,1.1662,1.1662,1.1662,0,0,1.0758,1.0827,1.0853,1.0952,1.1007,1.1057,1.1102,1.1154,1.1192,1.1268,1.1329,1.1381,1.1462,1.1517,1.1545,1.1559,1.1609,1.1608,1.1604,1.1609,1.164,1.1638,1.1636,1.1662,1.1662,1.1662,0,0,1.0741,1.0798,1.0835,1.0889,1.0972,1.1027,1.1036,1.1131,1.1168,1.123,1.1288,1.1336,1.1437,1.1492,1.1533,1.1538,1.1579,1.1555,1.1531,1.1559,1.1558,1.1556,1.1558,1.1558,1.1557,1.1557,1.1557,0,1.0702,1.0779,1.085,1.0898,1.094,1.1009,1.1048,1.1098,1.1196,1.1224,1.1239,1.1367,1.1427,1.1496,1.1497,1.1528,1.1541,1.1544,1.1552,1.1551,1.1551,1.1554,1.1555,1.1554,1.1554,1.1555,1.1555,0,1.0728,1.078,1.0801,1.0893,1.0937,1.098,1.1058,1.1095,1.1138,1.1192,1.1255,1.1329,1.1406,1.1426,1.1468,1.1501,1.1508,1.1536,1.1561,1.1544,1.1548,1.155,1.1549,1.155,1.1551,1.1552,0,0,1.0665,1.0795,1.0802,1.0844,1.094,1.0983,1.103,1.1104,1.1134,1.12,1.1242,1.1326,1.1352,1.1399,1.1449,1.1474,1.1473,1.1499,1.1503,1.1492,1.1514,1.1492,1.1492,1.1501,1.1501,1.1502,1.1508,0,1.0663,1.0749,1.0814,1.0875,1.0925,1.0992,1.1033,1.1097,1.1149,1.12,1.1259,1.1317,1.1347,1.1376,1.1404,1.1467,1.1478,1.1467,1.1542,1.1543,1.1519,1.1494,1.1472,1.1473,1.151,1.151,1.151,0,1.0671,1.0733,1.0799,1.089,1.0914,1.0949,1.1022,1.107,1.1144,1.118,1.1232,1.1283,1.1337,1.1357,1.1433,1.1424,1.1458,1.1494,1.1496,1.1505,1.1525,1.1503,1.1476,1.1476,1.1513,1.1513,1.1513,0,1.0619,1.0719,1.0772,1.0806,1.0914,1.0937,1.0983,1.1058,1.1098,1.1162,1.119,1.126,1.1298,1.1352,1.1421,1.1429,1.1489,1.1515,1.1522,1.152,1.1532,1.153,1.1509,1.1553,1.1553,1.1553,1.1553,0,1.0609,1.0647,1.075,1.0782,1.0827,1.0902,1.0945,1.0997,1.1062,1.1107,1.117,1.121,1.1299,1.1351,1.1405,1.146,1.1477,1.1508,1.1523,1.1503,1.1499,1.1527,1.1528,1.1553,1.1553,1.1553,1.1553,0,1.0558,1.0628,1.069,1.0787,1.0812,1.0841,1.0924,1.0959,1.1014,1.107,1.1087,1.1175,1.1239,1.1313,1.1402,1.1439,1.1489,1.151,1.1463,1.1471,1.1474,1.1472,1.147,1.1474,1.1515,1.1514,1.1514,0,1.0547,1.0578,1.0677,1.0711,1.0755,1.0809,1.085,1.0925,1.0966,1.1052,1.1077,1.1145,1.1204,1.1304,1.1377,1.1445,1.1468,1.1462,1.1479,1.1458,1.1468,1.1465,1.1469,1.1458,1.1457,1.1456,1.1456,0,1.052,1.0553,1.061,1.0678,1.0725,1.0783,1.0844,1.0868,1.0956,1.0999,1.1064,1.111,1.12,1.1268,1.1346,1.1395,1.144,1.145,1.1455,1.1435,1.1407,1.1422,1.1451,1.145,1.145,1.1451,1.1451,1.1451,1.049,1.052,1.0594,1.0655,1.0708,1.0764,1.0801,1.086,1.0916,1.0995,1.1036,1.1101,1.1176,1.1285,1.1332,1.1385,1.14,1.1408,1.141,1.141,1.1405,1.1398,1.14,1.14,1.14,1.14,1.1401,0,1.0466,1.0517,1.0572,1.0654,1.0702,1.074,1.0809,1.0847,1.0903,1.0968,1.1024,1.11,1.1166,1.1243,1.1315,1.1342,1.1365,1.1359,1.1357,1.1368,1.1387,1.1375,1.1339,1.1339,1.1339,1.1339,1.1339,1.1339,1.0459,1.0512,1.0554,1.0635,1.0687,1.075,1.0786,1.0838,1.089,1.0972,1.1026,1.1076,1.1147,1.1223,1.1286,1.1307,1.1331,1.1318,1.1345,1.1362,1.1367,1.1372,1.1361,1.1322,1.1322,1.1322,1.1322,1.1322]},{"header":{"parameterUnit":"m.s-1","parameterCategory":1,"la1":30.2991,"la2":30.254,"lo1":-89.0895,"lo2":-89.0444,"dy":0.0017,"dx":0.0017,"nx":28,"ny":28,"refTime":"2024-07-16T03:00:00:Z","depth":0,"parameterNumber":3,"parameterNumberName":"V-component_of_WINDS"},"data":[0,0,0,0,0,0,0,0,0,0,0,0,0,0,0,0,0,0,0,0,0,0,0,0,0,0,0,0,0,0,0,0,0,0,0,0,0,0,0,0,0,0,0,0,0,0,0,0,0,0,0,0,0,0,0,0,0,0,2.3511,2.351,0,2.3466,2.3466,2.3465,2.3445,2.3445,2.3445,2.3445,2.3396,2.3395,2.3393,0,0,0,0,0,0,0,0,0,0,0,0,0,2.3574,2.3573,2.3511,2.351,2.3509,2.3466,2.3466,2.3465,2.3444,2.3445,2.3445,2.3445,2.3396,2.3395,2.3393,0,0,0,0,0,0,0,0,0,0,0,0,0,2.354,2.3573,2.3511,2.3494,2.3492,2.3466,2.3465,2.3465,2.3444,2.3445,2.3445,2.3445,2.3397,2.3395,2.3393,2.3379,0,0,2.3387,2.3386,0,0,0,0,0,0,0,0,2.3542,2.3537,2.3497,2.3495,2.3493,2.3461,2.347,2.3436,2.3444,2.3463,2.3445,2.3445,2.3417,2.3414,2.3405,2.3377,2.3375,2.3387,2.3385,2.3385,2.3384,0,0,0,0,0,0,0,2.3544,2.3539,2.3493,2.3497,2.3494,2.3488,2.3483,2.3463,2.344,2.3461,2.3459,2.3455,2.3416,2.3407,2.3404,2.3374,2.3387,2.3385,2.3384,2.3383,2.333,2.333,0,0,0,0,0,0,2.355,2.3541,2.3494,2.3492,2.3518,2.3486,2.3481,2.3471,2.344,2.3436,2.3455,2.3454,2.341,2.3406,2.3402,2.3382,2.3385,2.3383,2.3382,2.333,2.333,2.333,0,0,0,0,0,0,2.3551,2.3546,2.3496,2.3516,2.3509,2.3485,2.3474,2.347,2.3461,2.3435,2.3431,2.345,2.341,2.3405,2.3385,2.3381,2.3382,2.338,2.3331,2.333,2.333,2.3344,0,0,0,0,0,0,2.3553,2.3546,2.3542,2.3516,2.3508,2.3481,2.3474,2.3469,2.3458,2.3457,2.343,2.3425,2.341,2.3388,2.3383,2.3378,2.3378,2.3331,2.333,2.333,2.3344,2.3345,2.3345,0,0,0,0,0,2.3555,2.3547,2.3542,2.3536,2.3502,2.3481,2.3476,2.346,2.3458,2.3452,2.3436,2.3426,2.3382,2.3386,2.338,2.3374,2.3331,2.3331,2.333,2.3344,2.3345,2.3345,0,0,0,0,0,0,2.3573,2.3544,2.3537,2.3521,2.3504,2.3477,2.347,2.3461,2.3443,2.3442,2.3422,2.3416,2.3397,2.3384,2.3389,2.3358,2.3355,2.3354,2.3368,2.3368,2.3369,2.3372,2.3377,0,0,0,0,0,2.3575,2.3561,2.3536,2.3524,2.3515,2.3494,2.3484,2.3473,2.3454,2.3446,2.3428,2.3409,2.339,2.3379,2.336,2.3342,2.3335,2.3335,2.3336,2.3336,2.3335,2.3322,2.3322,2.3328,2.3328,2.3329,0,0,2.3579,2.3561,2.3553,2.3527,2.3512,2.3497,2.3488,2.3473,2.3461,2.3443,2.3424,2.3409,2.3386,2.3367,2.3357,2.3355,2.3331,2.3336,2.3336,2.3334,2.3322,2.3321,2.3321,2.3328,2.3328,2.3328,0,0,2.3578,2.3564,2.3552,2.3537,2.3515,2.35,2.3498,2.3472,2.3463,2.3442,2.3429,2.3413,2.3383,2.3366,2.3354,2.3345,2.3335,2.334,2.3342,2.333,2.3329,2.3329,2.3324,2.3323,2.3339,2.3339,2.3339,0,2.3585,2.3563,2.3546,2.3531,2.3519,2.3503,2.349,2.3476,2.3449,2.344,2.3438,2.3398,2.3382,2.3357,2.3355,2.3346,2.3341,2.3343,2.3331,2.333,2.3329,2.3325,2.3323,2.3339,2.3339,2.3339,2.3339,0,2.3572,2.3557,2.3549,2.3524,2.3511,2.3497,2.3477,2.3465,2.3455,2.344,2.3419,2.3398,2.3375,2.3368,2.3358,2.3342,2.3341,2.3335,2.3332,2.333,2.3325,2.3323,2.334,2.334,2.334,2.334,0,0,2.3582,2.3547,2.3544,2.3532,2.3505,2.3492,2.3477,2.3455,2.3444,2.3426,2.3411,2.3385,2.3379,2.3365,2.3352,2.3342,2.3335,2.3337,2.3336,2.3337,2.3314,2.3318,2.3316,2.3328,2.3328,2.3327,2.3315,0,2.3576,2.3549,2.3533,2.3511,2.3495,2.348,2.3465,2.3447,2.3433,2.3416,2.34,2.3381,2.3376,2.3367,2.3356,2.3338,2.333,2.3339,2.3312,2.3312,2.3318,2.3314,2.3318,2.3308,2.3314,2.3313,2.3313,0,2.3567,2.3549,2.3526,2.35,2.3493,2.3481,2.3458,2.3444,2.3421,2.3412,2.3395,2.3383,2.3363,2.3362,2.3334,2.3341,2.3329,2.3318,2.3317,2.3313,2.3312,2.3309,2.3305,2.3303,2.331,2.3311,2.3311,0,2.3575,2.3545,2.3527,2.3517,2.3487,2.3478,2.3465,2.3443,2.343,2.341,2.3401,2.3379,2.3367,2.3349,2.3329,2.333,2.3303,2.33,2.3293,2.3293,2.3288,2.3288,2.328,2.3282,2.3282,2.3282,2.3282,0,2.3571,2.3557,2.353,2.3519,2.3502,2.3483,2.3467,2.3452,2.3432,2.3417,2.3401,2.3387,2.3363,2.3344,2.3329,2.3308,2.3302,2.3293,2.3288,2.3294,2.3295,2.3285,2.3285,2.3281,2.3281,2.3281,2.3281,0,2.3577,2.3558,2.3537,2.351,2.3503,2.3492,2.3468,2.3455,2.344,2.342,2.3414,2.339,2.3367,2.3347,2.3317,2.3306,2.3284,2.328,2.3292,2.329,2.3283,2.3284,2.3268,2.3265,2.3269,2.3269,2.3269,0,2.3575,2.3564,2.3535,2.3524,2.3512,2.3494,2.3481,2.3461,2.3447,2.3421,2.3411,2.3388,2.3368,2.3333,2.3311,2.3288,2.3282,2.3278,2.3278,2.3283,2.328,2.3281,2.3279,2.3278,2.3278,2.3278,2.3278,0,2.3573,2.3564,2.3546,2.3525,2.351,2.3492,2.3473,2.3464,2.344,2.3426,2.3403,2.3388,2.3358,2.3334,2.3308,2.3292,2.3281,2.3279,2.3275,2.328,2.3287,2.3282,2.3292,2.3279,2.3279,2.3279,2.3279,2.3279,2.3574,2.3563,2.3541,2.3521,2.3505,2.3488,2.3474,2.3457,2.3438,2.3413,2.3401,2.3378,2.3354,2.3318,2.3303,2.3283,2.3281,2.3276,2.3275,2.3274,2.3275,2.3291,2.3278,2.3278,2.3278,2.3278,2.3278,0,2.3571,2.3556,2.3538,2.3512,2.3496,2.3487,2.3466,2.3452,2.3432,2.3412,2.3393,2.3366,2.3342,2.3319,2.3294,2.3282,2.3276,2.3276,2.3276,2.3273,2.3279,2.3284,2.3282,2.3282,2.3282,2.3282,2.3282,2.3282,2.3567,2.3547,2.3536,2.3507,2.3492,2.3469,2.3458,2.3441,2.3424,2.3395,2.3376,2.3361,2.3338,2.3311,2.3289,2.3282,2.3273,2.3275,2.3266,2.3273,2.3273,2.3272,2.3277,2.3273,2.3273,2.3261,2.3261,2.3261]}]]